[[{"header":{"parameterUnit":"m.s-1","parameterCategory":1,"la1":30.2991,"la2":30.254,"lo1":-89.0895,"lo2":-89.0444,"dy":0.0017,"dx":0.0017,"nx":28,"ny":28,"refTime":"2024-10-10T21:00:00:Z","depth":0,"parameterNumber":2,"parameterNumberName":"U-component_of_WINDS"},"data":[0,0,0,0,0,0,0,0,0,0,0,0,0,0,0,0,0,0,0,0,0,0,0,0,0,0,0,0,0,0,0,0,0,0,0,0,0,0,0,0,0,0,0,0,0,0,0,0,0,0,0,0,0,0,0,0,0,0,-2.2311,-2.2312,0,-2.2364,-2.2365,-2.2365,-2.226,-2.2257,-2.2253,-2.225,-2.2309,-2.2313,-2.2318,0,0,0,0,0,0,0,0,0,0,0,0,0,-2.2122,-2.2126,-2.2311,-2.2312,-2.2312,-2.2364,-2.2365,-2.2365,-2.2261,-2.2257,-2.2252,-2.2249,-2.2307,-2.2313,-2.2318,0,0,0,0,0,0,0,0,0,0,0,0,0,-2.2193,-2.2128,-2.2311,-2.2266,-2.2263,-2.2364,-2.2365,-2.2365,-2.2262,-2.2257,-2.2251,-2.2247,-2.2305,-2.2312,-2.2319,-2.2467,0,0,-2.2341,-2.2344,0,0,0,0,0,0,0,0,-2.2189,-2.22,-2.2272,-2.227,-2.2266,-2.23,-2.2319,-2.24,-2.2263,-2.2262,-2.225,-2.2244,-2.231,-2.2317,-2.2338,-2.247,-2.2472,-2.2342,-2.2346,-2.2349,-2.2351,0,0,0,0,0,0,0,-2.2184,-2.2197,-2.2332,-2.2273,-2.227,-2.2245,-2.2249,-2.2334,-2.2315,-2.2262,-2.2254,-2.2262,-2.2308,-2.2332,-2.2339,-2.2473,-2.2342,-2.2348,-2.2352,-2.2355,-2.2729,-2.2734,0,0,0,0,0,0,-2.2184,-2.2194,-2.233,-2.2334,-2.2214,-2.2252,-2.2257,-2.2294,-2.2314,-2.2311,-2.2266,-2.2257,-2.2322,-2.2331,-2.234,-2.2515,-2.2349,-2.2356,-2.236,-2.2723,-2.273,-2.2736,0,0,0,0,0,0,-2.2181,-2.2198,-2.2328,-2.2262,-2.2276,-2.2261,-2.2304,-2.2298,-2.2322,-2.2317,-2.2313,-2.2294,-2.2318,-2.233,-2.2436,-2.2516,-2.2359,-2.2366,-2.2717,-2.2725,-2.2733,-2.2867,0,0,0,0,0,0,-2.2176,-2.2197,-2.2253,-2.2264,-2.228,-2.2423,-2.2309,-2.2303,-2.2334,-2.2322,-2.2342,-2.234,-2.2315,-2.2426,-2.2443,-2.2523,-2.2371,-2.271,-2.2721,-2.2731,-2.2855,-2.2879,-2.2899,0,0,0,0,0,-2.2169,-2.2289,-2.2256,-2.2273,-2.2349,-2.2428,-2.2437,-2.2404,-2.2341,-2.2397,-2.2394,-2.234,-2.2504,-2.2438,-2.2456,-2.2539,-2.2704,-2.2718,-2.273,-2.2845,-2.2874,-2.2898,0,0,0,0,0,0,-2.229,-2.229,-2.2253,-2.2379,-2.2404,-2.241,-2.248,-2.2436,-2.248,-2.2467,-2.2425,-2.2431,-2.2545,-2.2552,-2.2479,-2.2683,-2.2594,-2.2611,-2.2675,-2.2702,-2.2724,-2.2721,-2.2377,0,0,0,0,0,-2.233,-2.2393,-2.239,-2.2502,-2.2516,-2.2496,-2.2529,-2.2501,-2.2525,-2.2536,-2.254,-2.2567,-2.2624,-2.2663,-2.2716,-2.2854,-2.2858,-2.2921,-2.2942,-2.296,-2.2977,-2.3051,-2.3079,-2.2778,-2.2778,-2.2778,0,0,-2.2417,-2.2424,-2.2466,-2.2526,-2.2542,-2.2609,-2.2506,-2.2581,-2.263,-2.2547,-2.2648,-2.2652,-2.2679,-2.2802,-2.2856,-2.2811,-2.306,-2.2977,-2.2991,-2.2997,-2.3067,-2.3095,-2.3121,-2.2786,-2.2785,-2.2784,0,0,-2.2607,-2.2619,-2.2713,-2.2731,-2.2755,-2.2741,-2.2764,-2.2775,-2.2775,-2.2874,-2.2813,-2.2871,-2.2971,-2.2993,-2.3017,-2.3214,-2.3167,-2.3233,-2.3348,-2.3421,-2.3444,-2.3465,-2.3537,-2.3563,-2.3248,-2.3248,-2.3249,0,-2.2712,-2.2809,-2.2768,-2.2847,-2.2875,-2.2801,-2.2897,-2.2917,-2.2958,-2.298,-2.2928,-2.3051,-2.3064,-2.3191,-2.3239,-2.3261,-2.3286,-2.3232,-2.3444,-2.3464,-2.3483,-2.3551,-2.3578,-2.3256,-2.3255,-2.3255,-2.3254,0,-2.2936,-2.3004,-2.3078,-2.3118,-2.3154,-2.3242,-2.3215,-2.3257,-2.3225,-2.3216,-2.3318,-2.3331,-2.3385,-2.3412,-2.3383,-2.3536,-2.3507,-2.345,-2.336,-2.3521,-2.3584,-2.361,-2.3268,-2.3265,-2.3262,-2.326,0,0,-2.3208,-2.3222,-2.325,-2.3267,-2.3288,-2.334,-2.3424,-2.3474,-2.3512,-2.3542,-2.3612,-2.3697,-2.3644,-2.3672,-2.3644,-2.3708,-2.3864,-2.3643,-2.3643,-2.3685,-2.4035,-2.4079,-2.411,-2.3832,-2.3836,-2.384,-2.4033,0,-2.3398,-2.3541,-2.3506,-2.3648,-2.3711,-2.3641,-2.3713,-2.3735,-2.3728,-2.3781,-2.3774,-2.3836,-2.3761,-2.3777,-2.3836,-2.3833,-2.3934,-2.3818,-2.3898,-2.3902,-2.3896,-2.4142,-2.4189,-2.4371,-2.4057,-2.4061,-2.4064,0,-2.364,-2.3678,-2.3826,-2.3836,-2.3861,-2.3927,-2.3971,-2.4021,-2.4044,-2.4035,-2.4065,-2.4024,-2.4107,-2.4013,-2.4129,-2.405,-2.4081,-2.4084,-2.409,-2.4098,-2.3995,-2.4159,-2.4428,-2.4456,-2.4103,-2.41,-2.4097,0,-2.3825,-2.3913,-2.4013,-2.4029,-2.4043,-2.4091,-2.4099,-2.4116,-2.4148,-2.4187,-2.4207,-2.4255,-2.4282,-2.4321,-2.4294,-2.4228,-2.4414,-2.4318,-2.441,-2.4412,-2.4455,-2.4453,-2.4735,-2.4471,-2.4471,-2.447,-2.447,0,-2.4043,-2.4137,-2.4096,-2.4158,-2.4261,-2.422,-2.4323,-2.4323,-2.4338,-2.44,-2.4341,-2.44,-2.436,-2.4416,-2.4395,-2.4495,-2.4507,-2.4503,-2.4497,-2.4509,-2.451,-2.4531,-2.4518,-2.4478,-2.4476,-2.4475,-2.4473,0,-2.4268,-2.4244,-2.4349,-2.4352,-2.4355,-2.4431,-2.4434,-2.4492,-2.448,-2.4558,-2.4574,-2.4556,-2.4619,-2.4595,-2.4662,-2.4648,-2.4775,-2.4751,-2.4768,-2.4763,-2.4857,-2.4849,-2.5163,-2.5203,-2.4912,-2.4915,-2.4917,0,-2.441,-2.448,-2.449,-2.4526,-2.4538,-2.4597,-2.4629,-2.459,-2.4627,-2.4657,-2.4711,-2.4768,-2.4812,-2.4915,-2.4909,-2.496,-2.4938,-2.5045,-2.4946,-2.4956,-2.4942,-2.4939,-2.4947,-2.5066,-2.5069,-2.5072,-2.5074,0,-2.4665,-2.4649,-2.4697,-2.4742,-2.4781,-2.4815,-2.4843,-2.4876,-2.4839,-2.4883,-2.4945,-2.4979,-2.5046,-2.5104,-2.5149,-2.5158,-2.5111,-2.5104,-2.5129,-2.5144,-2.5151,-2.515,-2.4824,-2.5098,-2.5096,-2.5094,-2.5093,-2.5092,-2.4854,-2.4913,-2.4929,-2.4985,-2.5001,-2.5029,-2.5083,-2.5077,-2.5128,-2.5179,-2.5152,-2.5225,-2.5245,-2.53,-2.5316,-2.5373,-2.5331,-2.5366,-2.5376,-2.5385,-2.5398,-2.514,-2.538,-2.538,-2.5379,-2.5378,-2.5378,0,-2.5107,-2.5113,-2.5164,-2.5205,-2.5249,-2.5197,-2.5226,-2.5266,-2.5331,-2.5352,-2.5396,-2.5468,-2.5523,-2.552,-2.5571,-2.5617,-2.5597,-2.5632,-2.563,-2.5633,-2.5432,-2.5406,-2.5648,-2.5648,-2.5648,-2.5648,-2.5648,-2.5648,-2.5244,-2.5342,-2.5328,-2.5433,-2.5438,-2.5508,-2.5529,-2.5554,-2.5571,-2.5653,-2.5698,-2.5695,-2.5707,-2.5758,-2.5807,-2.5804,-2.5827,-2.5871,-2.5861,-2.5674,-2.5647,-2.5622,-2.5598,-2.5876,-2.5876,-2.6058,-2.606,-2.6061]},{"header":{"parameterUnit":"m.s-1","parameterCategory":1,"la1":30.2991,"la2":30.254,"lo1":-89.0895,"lo2":-89.0444,"dy":0.0017,"dx":0.0017,"nx":28,"ny":28,"refTime":"2024-10-10T21:00:00:Z","depth":0,"parameterNumber":3,"parameterNumberName":"V-component_of_WINDS"},"data":[0,0,0,0,0,0,0,0,0,0,0,0,0,0,0,0,0,0,0,0,0,0,0,0,0,0,0,0,0,0,0,0,0,0,0,0,0,0,0,0,0,0,0,0,0,0,0,0,0,0,0,0,0,0,0,0,0,0,-3.4788,-3.4788,0,-3.479,-3.479,-3.479,-3.473,-3.4729,-3.4727,-3.4726,-3.4728,-3.473,-3.4731,0,0,0,0,0,0,0,0,0,0,0,0,0,-3.4731,-3.4733,-3.4788,-3.4788,-3.4788,-3.479,-3.479,-3.479,-3.4731,-3.4729,-3.4727,-3.4725,-3.4727,-3.4729,-3.4731,0,0,0,0,0,0,0,0,0,0,0,0,0,-3.4747,-3.4733,-3.4788,-3.4759,-3.4756,-3.479,-3.479,-3.479,-3.4731,-3.4729,-3.4726,-3.4724,-3.4727,-3.4729,-3.4731,-3.4794,0,0,-3.4739,-3.474,0,0,0,0,0,0,0,0,-3.4746,-3.4749,-3.4763,-3.4761,-3.4758,-3.4758,-3.4771,-3.4792,-3.4732,-3.4741,-3.4726,-3.4723,-3.474,-3.4741,-3.4747,-3.4794,-3.4794,-3.4739,-3.474,-3.4741,-3.4742,0,0,0,0,0,0,0,-3.4745,-3.4749,-3.4789,-3.4763,-3.476,-3.4745,-3.4745,-3.4775,-3.4754,-3.474,-3.4735,-3.4736,-3.4738,-3.4745,-3.4746,-3.4794,-3.4739,-3.4741,-3.4742,-3.4743,-3.4891,-3.4893,0,0,0,0,0,0,-3.4748,-3.4748,-3.4789,-3.4789,-3.4746,-3.4748,-3.4747,-3.476,-3.4753,-3.475,-3.4738,-3.4734,-3.4742,-3.4744,-3.4746,-3.4817,-3.4741,-3.4743,-3.4745,-3.4888,-3.4891,-3.4894,0,0,0,0,0,0,-3.4747,-3.4752,-3.4789,-3.4767,-3.4771,-3.4751,-3.4766,-3.4762,-3.4768,-3.4752,-3.4748,-3.4749,-3.474,-3.4743,-3.4782,-3.4816,-3.4744,-3.4747,-3.4885,-3.4889,-3.4892,-3.496,0,0,0,0,0,0,-3.4746,-3.4752,-3.4776,-3.4768,-3.4772,-3.4825,-3.4768,-3.4763,-3.4772,-3.4766,-3.4761,-3.4758,-3.4738,-3.4779,-3.4784,-3.4818,-3.4748,-3.4882,-3.4887,-3.4891,-3.4955,-3.4966,-3.4975,0,0,0,0,0,-3.4744,-3.4796,-3.4778,-3.4783,-3.4802,-3.4827,-3.483,-3.4806,-3.4775,-3.4799,-3.4788,-3.4758,-3.4812,-3.4783,-3.4789,-3.4824,-3.488,-3.4885,-3.4891,-3.495,-3.4964,-3.4975,0,0,0,0,0,0,-3.4809,-3.4795,-3.4774,-3.4826,-3.4828,-3.4817,-3.4846,-3.4821,-3.4833,-3.4826,-3.4796,-3.4795,-3.4839,-3.4836,-3.4804,-3.4883,-3.484,-3.4847,-3.4883,-3.4896,-3.4906,-3.4905,-3.475,0,0,0,0,0,-3.483,-3.4852,-3.4838,-3.4884,-3.4886,-3.4866,-3.4877,-3.4858,-3.4859,-3.486,-3.4853,-3.4855,-3.4872,-3.4884,-3.4899,-3.4954,-3.4951,-3.4981,-3.4991,-3.5,-3.5006,-3.5032,-3.5045,-3.4912,-3.4912,-3.4912,0,0,-3.4872,-3.4867,-3.4883,-3.4897,-3.4897,-3.4919,-3.4868,-3.4895,-3.4911,-3.4864,-3.49,-3.4895,-3.4895,-3.4942,-3.4962,-3.4941,-3.5042,-3.5007,-3.5014,-3.5015,-3.504,-3.5052,-3.5063,-3.4916,-3.4915,-3.4915,0,0,-3.496,-3.4959,-3.4996,-3.4997,-3.4997,-3.4983,-3.4992,-3.4985,-3.4979,-3.5014,-3.4979,-3.4998,-3.5029,-3.503,-3.5035,-3.5121,-3.5093,-3.5127,-3.518,-3.5207,-3.5217,-3.5226,-3.5255,-3.5266,-3.5134,-3.5134,-3.5134,0,-3.5013,-3.5046,-3.5019,-3.5047,-3.5054,-3.5012,-3.5049,-3.5051,-3.5056,-3.5061,-3.5037,-3.5073,-3.5071,-3.5116,-3.5137,-3.5143,-3.5151,-3.5127,-3.5218,-3.5226,-3.5234,-3.5262,-3.5273,-3.5138,-3.5137,-3.5137,-3.5137,0,-3.5109,-3.5132,-3.5163,-3.5167,-3.5177,-3.521,-3.5188,-3.5201,-3.5181,-3.5169,-3.5205,-3.5201,-3.5213,-3.5223,-3.5204,-3.5265,-3.5251,-3.5223,-3.5179,-3.5251,-3.5276,-3.5287,-3.5143,-3.5142,-3.5141,-3.514,0,0,-3.5239,-3.5227,-3.5239,-3.5239,-3.5235,-3.5252,-3.5283,-3.5294,-3.5305,-3.531,-3.5333,-3.536,-3.5333,-3.5338,-3.5319,-3.5342,-3.5408,-3.5311,-3.531,-3.5327,-3.5473,-3.5493,-3.5505,-3.539,-3.5392,-3.5394,-3.5472,0,-3.5323,-3.5373,-3.5349,-3.5402,-3.5422,-3.5382,-3.5407,-3.5408,-3.5397,-3.5412,-3.5401,-3.5419,-3.5383,-3.5386,-3.5407,-3.5396,-3.5437,-3.539,-3.5411,-3.5412,-3.541,-3.5519,-3.5541,-3.5614,-3.5482,-3.5484,-3.5485,0,-3.5428,-3.5435,-3.549,-3.548,-3.5487,-3.5511,-3.5518,-3.5534,-3.5532,-3.5523,-3.5528,-3.5503,-3.5531,-3.5489,-3.5526,-3.5494,-3.5501,-3.5497,-3.5499,-3.5499,-3.5452,-3.552,-3.5638,-3.5648,-3.55,-3.5499,-3.5498,0,-3.5514,-3.5538,-3.5573,-3.5575,-3.5565,-3.5582,-3.5579,-3.5575,-3.5583,-3.5589,-3.5594,-3.5604,-3.5609,-3.5618,-3.5596,-3.5567,-3.5635,-3.5591,-3.5627,-3.5628,-3.5642,-3.5641,-3.5761,-3.565,-3.565,-3.565,-3.5649,0,-3.5609,-3.5644,-3.5611,-3.5633,-3.5669,-3.5641,-3.5678,-3.5671,-3.5667,-3.5686,-3.5653,-3.5671,-3.5642,-3.5657,-3.564,-3.5672,-3.5675,-3.5668,-3.5662,-3.567,-3.567,-3.5673,-3.5666,-3.5652,-3.5652,-3.5651,-3.5651,0,-3.5712,-3.5692,-3.5727,-3.5714,-3.5711,-3.5739,-3.5727,-3.5746,-3.5733,-3.5757,-3.5761,-3.574,-3.5756,-3.5735,-3.575,-3.5738,-3.5781,-3.5769,-3.5781,-3.5777,-3.5813,-3.5809,-3.5938,-3.5952,-3.5834,-3.5835,-3.5836,0,-3.5773,-3.5798,-3.5787,-3.5797,-3.5795,-3.5811,-3.5818,-3.5791,-3.58,-3.5799,-3.5818,-3.5831,-3.5839,-3.5867,-3.5853,-3.5863,-3.585,-3.5894,-3.5851,-3.5857,-3.5848,-3.5846,-3.5847,-3.5902,-3.5904,-3.5905,-3.5906,0,-3.5883,-3.5871,-3.5882,-3.589,-3.5899,-3.5904,-3.5906,-3.5916,-3.5888,-3.5899,-3.5914,-3.5921,-3.5934,-3.5947,-3.5953,-3.5949,-3.5923,-3.592,-3.5928,-3.5935,-3.594,-3.5935,-3.5803,-3.5917,-3.5915,-3.5915,-3.5914,-3.5914,-3.5965,-3.5985,-3.5979,-3.5992,-3.5991,-3.5993,-3.6009,-3.5998,-3.601,-3.6018,-3.6001,-3.602,-3.6017,-3.6022,-3.6021,-3.6035,-3.6016,-3.6029,-3.6032,-3.6035,-3.6039,-3.5939,-3.6037,-3.6036,-3.6036,-3.6036,-3.6035,0,-3.6071,-3.6065,-3.6078,-3.6081,-3.6091,-3.6065,-3.6065,-3.6075,-3.6092,-3.6091,-3.6099,-3.6116,-3.6128,-3.6115,-3.6123,-3.6137,-3.6125,-3.614,-3.6138,-3.6137,-3.6057,-3.6048,-3.615,-3.615,-3.615,-3.615,-3.615,-3.615,-3.6128,-3.6158,-3.6146,-3.6175,-3.6169,-3.6186,-3.6188,-3.619,-3.6188,-3.6208,-3.6217,-3.6208,-3.6202,-3.621,-3.6219,-3.6215,-3.6219,-3.6238,-3.6229,-3.6154,-3.6143,-3.6132,-3.6123,-3.624,-3.624,-3.6308,-3.6309,-3.6309]}]]